Change the Weather History Date:

Saturday, February 15, 2014

  Actual Average Record
Temperature  
Mean Temperature 66 °F -  
Max Temperature 77 °F 72 °F 82 °F (2007)
Min Temperature 55 °F 56 °F 46 °F (2004)
Cooling Degree Days 1    
Growing Degree Days 16 (Base 50)    
Moisture  
Dew Point 40 °F    
Average Humidity 38    
Maximum Humidity 68    
Minimum Humidity 19    
Precipitation  
Precipitation 0.00 in - - ()
Sea Level Pressure  
Sea Level Pressure 29.96 in    
Wind  
Wind Speed 11 mph ()    
Max Wind Speed 18 mph    
Max Gust Speed -    
Visibility 6.1 miles    
Events      
Averages and records for this station are not official NWS values.
T = Trace of Precipitation, MM = Missing Value Source: Averaged Metar Reports

Daily Weather History Graph

Daily Weather History Graph

Search for Another Location

Airport or City:

Trip Planner

Search our weather history database for the weather conditions in past years. The results will help you decide how hot, cold, wet, or windy it might be!

Date:

Astronomy

Feb. 15, 2014 Rise Set
Actual Time 6:21 AM EET 5:36 PM EET
Civil Twilight 5:57 AM EET 6:00 PM EET
Nautical Twilight 5:30 AM EET 6:27 PM EET
Astronomical Twilight 5:03 AM EET 6:54 PM EET
Moon 6:09 PM EET (2/15) 6:15 AM EET (2/15)
Length of Visible Light 12h 02m
Length of Day
11h 14m
Full, 100% of the Moon is Illuminated
Feb 15
Full
Feb 22
Last Quarter
Mar 1
New
Mar 8
First Quarter
Mar 16
Full

Hourly Weather History & Observations

Time (EET) Temp. Dew Point Humidity Pressure Visibility Wind Dir Wind Speed Gust Speed Precip Events Conditions
1:00 AM 60.8 °F 35.6 °F 39% 30.01 in - NW 17.3 mph - N/A   Clear
2:00 AM 61 °F 37 °F 28% 30.01 in 6 mi NNW 11.5 mph - -  
2:00 AM 60.8 °F 37.4 °F 42% 30.01 in - NNW 11.5 mph - N/A   Clear
3:00 AM 57.2 °F 37.4 °F 48% 29.98 in - NW 6.9 mph - N/A   Clear
4:00 AM 57.2 °F 37.4 °F 48% 29.98 in - NW 6.9 mph - N/A   Clear
5:00 AM 56 °F 36 °F 35% 29.99 in 6 mi NW 9.2 mph - -  
5:00 AM 55.4 °F 35.6 °F 47% 29.98 in - NW 9.2 mph - N/A   Clear
6:00 AM 57.2 °F 37.4 °F 48% 29.98 in - NW 11.5 mph - N/A   Clear
7:00 AM 57.2 °F 39.2 °F 51% 30.01 in - NW 11.5 mph - N/A   Clear
8:00 AM 61 °F 40 °F 33% 30.02 in 6 mi NW 9.2 mph - -  
8:00 AM 60.8 °F 39.2 °F 45% 30.01 in - NW 9.2 mph - N/A   Clear
9:00 AM 66.2 °F 39.2 °F 37% 30.01 in - NW 13.8 mph - N/A   Clear
10:00 AM 68.0 °F 39.2 °F 35% 30.01 in - NW 17.3 mph - N/A   Clear
11:00 AM 70 °F 40 °F 22% 30.01 in 6 mi NW 18.4 mph - -  
11:00 AM 69.8 °F 39.2 °F 33% 30.01 in - NW 18.4 mph - N/A   Clear
12:00 PM 71.6 °F 39.2 °F 31% 29.95 in 6.2 mi WNW 17.3 mph - N/A   Partly Cloudy
1:00 PM 73.4 °F 37.4 °F 27% 29.92 in 6.2 mi South 9.2 mph - N/A   Partly Cloudy
2:00 PM 76 °F 42 °F 19% 29.92 in 6 mi SE 6.9 mph - -   Scattered Clouds
2:00 PM 75.2 °F 42.8 °F 31% 29.92 in 6.2 mi SE 6.9 mph - N/A   Partly Cloudy
3:00 PM 75.2 °F 41.0 °F 29% 29.89 in 6.2 mi ESE 9.2 mph - N/A   Partly Cloudy
4:00 PM 71.6 °F 42.8 °F 35% 29.89 in 6.2 mi SE 9.2 mph - N/A   Scattered Clouds
5:00 PM 70 °F 44 °F 28% 29.89 in 6 mi SE 3.5 mph - -   Mostly Cloudy
5:00 PM 69.8 °F 44.6 °F 40% 29.89 in 6.2 mi SE 3.5 mph - N/A   Scattered Clouds
6:00 PM 69.8 °F 46.4 °F 43% 29.89 in 6.2 mi SE 4.6 mph - N/A   Scattered Clouds
7:00 PM 69.8 °F 37.4 °F 31% 29.89 in 6.2 mi West 15.0 mph - N/A   Scattered Clouds
8:00 PM 70 °F 38 °F 20% 29.91 in 6 mi WNW 17.3 mph - -   Partly Cloudy
8:00 PM 69.8 °F 37.4 °F 31% 29.89 in 6.2 mi WNW 17.3 mph - N/A   Scattered Clouds
9:00 PM 64.4 °F 46.4 °F 52% 29.95 in 6.2 mi NW 18.4 mph - N/A   Scattered Clouds
10:00 PM 62.6 °F 51.8 °F 68% 29.95 in 6.2 mi NNW 9.2 mph - N/A   Scattered Clouds
11:00 PM 63 °F 46 °F 42% 29.94 in 6 mi WNW 16.1 mph - -   Partly Cloudy
11:00 PM 62.6 °F 46.4 °F 55% 29.92 in 6.2 mi WNW 16.1 mph - N/A   Scattered Clouds